Location: Zagreb
(45.8000°N, 16.0000°E)
Time: 18:18:24
(UTC+02:00)

A-11 Canister half - Pass Details

Date: 12 August 2022
Orbit: 1524 x 1684 km, 47.3° (Epoch: 05 October)

Event Time Altitude Azimuth Distance (km) Brightness Sun altitude
Rises 04:10:10 0° 188° (S) 4,875 - -15.7°
Exits shadow 04:11:43 - 184° (S) 4,480 11.0 -15.5°
Reaches altitude 10° 04:14:10 10° 175° (S) 3,910 10.8 -15.2°
Maximum altitude 04:21:23 23° 128° (SE) 3,032 10.7 -14.3°
Drops below altitude 10° 04:28:39 10° 82° (E) 3,950 12.1 -13.3°
Sets 04:32:41 0° 69° (ENE) 4,937 13.3 -12.8°
